[[{"header":{"parameterUnit":"m.s-1","parameterCategory":1,"la1":30.2992,"la2":30.254,"lo1":-89.0895,"lo2":-89.0443,"dy":0.0025,"dx":0.0025,"nx":19,"ny":19,"refTime":"2026-05-18T21:00:00:Z","depth":0,"parameterNumber":2,"parameterNumberName":"U-component_of_WINDS"},"data":[0,0,0,-1.2062,-1.2063,-1.2116,-1.2116,-1.2186,-1.2187,0,0,0,0,0,0,0,0,0,0,0,-1.2046,-1.2046,-1.2061,-1.2063,-1.2116,-1.2116,-1.2186,-1.2187,0,0,0,0,0,0,0,0,0,0,0,-1.2046,-1.2046,-1.2047,-1.2063,-1.2116,-1.2116,-1.2186,-1.2146,0,0,0,0,0,0,0,0,0,0,-1.2094,-1.2079,-1.2046,-1.2047,-1.2063,-1.2116,-1.2116,-1.2144,-1.2148,-1.2163,0,-1.2175,0,-1.2182,-1.2192,-1.2192,0,0,0,-1.2063,-1.2075,-1.2089,-1.2047,-1.2064,-1.2116,-1.2092,-1.2146,-1.2151,-1.2169,-1.2176,-1.2178,-1.2183,-1.2192,-1.2193,-1.2273,-1.2273,0,0,-1.206,-1.2056,-1.2086,-1.2092,-1.2083,-1.209,-1.2094,-1.2149,-1.2157,-1.2176,-1.218,-1.2184,-1.2193,-1.2193,-1.2272,-1.2273,0,0,0,-1.2052,-1.2054,-1.2066,-1.2089,-1.2099,-1.2092,-1.2096,-1.2154,-1.2159,-1.2181,-1.2185,-1.2193,-1.2194,-1.2272,-1.2273,-1.2285,0,0,0,-1.205,-1.2049,-1.2065,-1.2063,-1.2098,-1.2127,-1.21,-1.2155,-1.2161,-1.2185,-1.2193,-1.2195,-1.2272,-1.2272,-1.2284,-1.2292,0,0,0,-1.2042,-1.2048,-1.2055,-1.2063,-1.2085,-1.2126,-1.2134,-1.2157,-1.2164,-1.2192,-1.2195,-1.2271,-1.2272,-1.2283,-1.229,-1.2312,0,0,0,-1.2033,-1.2066,-1.2055,-1.2094,-1.2085,-1.2133,-1.2134,-1.2171,-1.2196,-1.2193,-1.2272,-1.2273,-1.2283,-1.2289,-1.2311,-1.2329,-1.2336,0,0,-1.2073,-1.2071,-1.2094,-1.2086,-1.2135,-1.2126,-1.2177,-1.2206,-1.2213,-1.2253,-1.2255,-1.2284,-1.229,-1.2311,-1.2377,-1.2383,0,0,0,-1.2105,-1.2122,-1.2136,-1.2159,-1.218,-1.22,-1.222,-1.2231,-1.2265,-1.2232,-1.2298,-1.2302,-1.2314,-1.2323,-1.2328,-1.2339,-1.2276,-1.2276,-1.2276,-1.2154,-1.2161,-1.22,-1.2213,-1.2236,-1.2256,-1.2276,-1.2294,-1.2295,-1.231,-1.2322,-1.2361,-1.2371,-1.2375,-1.2386,-1.2332,-1.2332,-1.2332,-1.2332,-1.2212,-1.2237,-1.2236,-1.2274,-1.2281,-1.2313,-1.2335,-1.2334,-1.2366,-1.2352,-1.2364,-1.2349,-1.238,-1.2391,-1.2333,-1.2333,-1.2333,-1.2333,-1.2333,-1.2245,-1.2258,-1.2269,-1.2304,-1.2329,-1.2342,-1.2372,-1.2378,-1.2384,-1.2396,-1.2409,-1.2409,-1.2409,-1.2401,-1.2402,-1.2402,-1.2402,-1.2402,-1.2402,-1.2275,-1.2287,-1.2311,-1.2336,-1.2352,-1.2373,-1.2394,-1.241,-1.243,-1.2432,-1.2432,-1.2432,-1.2382,-1.2369,-1.2404,-1.2404,-1.2403,-1.2403,-1.2403,-1.2332,-1.232,-1.2356,-1.2372,-1.2402,-1.2427,-1.2434,-1.2466,-1.248,-1.2495,-1.2492,-1.2454,-1.2454,-1.245,-1.2439,-1.249,-1.249,-1.249,-1.249,-1.236,-1.2359,-1.2398,-1.2422,-1.2447,-1.2457,-1.2499,-1.2516,-1.2532,-1.2541,-1.2535,-1.2521,-1.2517,-1.2519,-1.2514,-1.2504,-1.257,-1.257,-1.257,-1.2395,-1.2397,-1.2431,-1.2445,-1.2469,-1.249,-1.253,-1.2559,-1.2574,-1.2574,-1.2549,-1.2545,-1.2524,-1.2516,-1.2515,-1.2507,-1.249,0,0]},{"header":{"parameterUnit":"m.s-1","parameterCategory":1,"la1":30.2992,"la2":30.254,"lo1":-89.0895,"lo2":-89.0443,"dy":0.0025,"dx":0.0025,"nx":19,"ny":19,"refTime":"2026-05-18T21:00:00:Z","depth":0,"parameterNumber":3,"parameterNumberName":"V-component_of_WINDS"},"data":[0,0,0,2.0536,2.0536,2.0551,2.0551,2.0581,2.0581,0,0,0,0,0,0,0,0,0,0,0,2.0539,2.0539,2.0536,2.0536,2.0551,2.0551,2.0581,2.0581,0,0,0,0,0,0,0,0,0,0,0,2.0538,2.0539,2.0539,2.0536,2.0551,2.0551,2.0581,2.0566,0,0,0,0,0,0,0,0,0,0,2.055,2.0559,2.0539,2.0539,2.0537,2.0551,2.0551,2.0565,2.0567,2.0579,0,2.0593,0,2.0588,2.0584,2.0584,0,0,0,2.0531,2.0557,2.0555,2.0539,2.0537,2.0551,2.0543,2.0566,2.0568,2.0582,2.0593,2.0594,2.0588,2.0584,2.0585,2.0675,2.0676,0,0,2.053,2.0545,2.0554,2.0557,2.0555,2.0542,2.0543,2.0567,2.058,2.0593,2.0594,2.0589,2.0585,2.0585,2.0675,2.0676,0,0,0,2.0532,2.0545,2.0541,2.0556,2.0558,2.0543,2.0544,2.0579,2.0576,2.0594,2.0589,2.0585,2.0585,2.0674,2.0675,2.0723,0,0,0,2.0531,2.0545,2.0541,2.055,2.0557,2.0568,2.0556,2.0575,2.0577,2.0589,2.0585,2.0586,2.0673,2.0675,2.072,2.0743,0,0,0,2.0535,2.0546,2.055,2.0551,2.0558,2.0568,2.0567,2.0575,2.0574,2.0584,2.0586,2.0673,2.0674,2.0717,2.0739,2.0772,0,0,0,2.0544,2.0592,2.0551,2.0603,2.0558,2.0597,2.0566,2.0595,2.0609,2.0585,2.0673,2.0675,2.0717,2.0736,2.0769,2.0803,2.0818,0,0,2.0613,2.0601,2.063,2.0594,2.0644,2.0594,2.0651,2.065,2.0638,2.0664,2.0666,2.0721,2.0739,2.0771,2.0897,2.0909,0,0,0,2.0657,2.0678,2.0688,2.0703,2.0704,2.0706,2.0696,2.0695,2.0717,2.0654,2.0741,2.0751,2.077,2.0785,2.0796,2.0811,2.0683,2.0682,2.0682,2.0775,2.0757,2.0804,2.0788,2.0802,2.0791,2.0801,2.0799,2.0776,2.0797,2.0805,2.0883,2.0902,2.0909,2.0926,2.082,2.082,2.082,2.0821,2.0875,2.0902,2.0871,2.0905,2.0886,2.0914,2.0905,2.0888,2.0912,2.0875,2.0891,2.0853,2.0923,2.0937,2.0824,2.0823,2.0823,2.0823,2.0822,2.0951,2.0961,2.096,2.098,2.0997,2.0978,2.1003,2.0984,2.0966,2.0981,2.0988,2.0987,2.0985,2.0986,2.0986,2.0986,2.0987,2.0987,2.0987,2.1031,2.1028,2.1051,2.1057,2.1064,2.1071,2.106,2.1066,2.1069,2.1053,2.1053,2.1028,2.0933,2.091,2.0991,2.099,2.099,2.0989,2.0989,2.114,2.1112,2.1149,2.1156,2.116,2.1179,2.1154,2.1169,2.1172,2.1185,2.1157,2.1089,2.1076,2.1067,2.1048,2.116,2.116,2.116,2.116,2.1205,2.1196,2.1229,2.1242,2.1252,2.1234,2.1276,2.1268,2.1255,2.1255,2.1236,2.1209,2.1201,2.1192,2.1181,2.1163,2.1301,2.1302,2.1302,2.1272,2.1263,2.1302,2.129,2.1292,2.1294,2.1333,2.1349,2.1329,2.1307,2.1256,2.125,2.1205,2.1192,2.1169,2.1153,2.1119,0,0]}]]